Date String (YYYY-MM-DD hh:mm:ss) UTC,Instrument flags,Ambient pressure (hPa),Sample flow (lpm),Bypass flow (lpm),Sample temperature (°C),Ambient temperature (°C),ASC tube jacket temperature (°C),LED temperature (°C),Box temperature (°C),Sample RH (%),Span deviation,Mass concentration (μg/m³),Mass concentration (μg/m³),Mass concentration (μg/m³)
DateTimeUTC,F1_M11,P_M11,Q1_M11,Q2_M11,T1_M11,T2_M11,T3_M11,T4_M11,T5_M11,U1_M11,ZSPAN_M11,X2_M11,X0_M11,X1_M11
2022-10-08 10:00:00,,0836.5,5.00,0.00,26.0,24.6,00.0,34.7,27.9,24.6,-001.6,0009.95,0015.44,0009.46
2022-10-08 10:01:00,,0836.5,4.98,0.00,26.0,24.6,00.0,34.7,27.9,24.6,-001.7,0009.97,0015.58,0009.44
2022-10-08 10:02:00,,0836.5,5.01,0.00,26.0,24.6,00.0,34.7,27.9,24.6,-001.7,0009.90,0015.36,0009.40
2022-10-08 10:03:00,,0836.5,5.00,0.00,26.0,24.6,00.0,34.7,27.9,24.7,-001.7,0009.88,0014.92,0009.40
2022-10-08 10:04:00,,0836.5,4.99,0.00,26.0,24.6,00.0,34.7,27.9,24.7,-001.5,0009.81,0014.75,0009.35
2022-10-08 10:05:00,,0836.5,5.00,0.00,26.0,24.6,00.0,34.7,27.9,24.8,-001.5,0009.70,0014.55,0009.29
2022-10-08 10:06:00,,0836.5,5.02,0.00,26.0,24.6,00.0,34.7,27.9,24.7,-001.4,0009.63,0014.45,0009.24
2022-10-08 10:07:00,,0836.5,4.99,0.00,26.0,24.6,00.0,34.7,27.9,24.7,-001.7,0009.62,0014.29,0009.23
2022-10-08 10:08:00,,0836.5,5.00,0.00,26.0,24.6,00.0,34.7,27.9,24.6,-001.6,0009.58,0014.25,0009.19
2022-10-08 10:09:00,,0836.5,5.01,0.00,26.0,24.6,00.0,34.8,27.9,24.7,-001.5,0009.54,0013.58,0009.14
2022-10-08 10:10:00,,0836.5,4.99,0.00,26.0,24.6,00.0,34.8,27.9,24.7,-001.6,0009.50,0014.09,0009.10
2022-10-08 10:11:00,,0836.5,5.00,0.00,26.0,24.6,00.0,34.8,27.9,24.5,-001.6,0009.50,0013.78,0009.10
2022-10-08 10:12:00,,0836.5,5.01,0.00,26.0,24.6,00.0,34.8,27.9,24.3,-001.6,0009.51,0013.68,0009.11
2022-10-08 10:13:00,,0836.5,4.99,0.00,26.0,24.6,00.0,34.8,28.0,24.4,-001.6,0009.52,0013.57,0009.12
2022-10-08 10:14:00,,0836.5,4.99,0.00,26.0,24.6,00.0,34.8,28.0,24.4,-001.7,0009.52,0013.53,0009.12
2022-10-08 10:15:00,,0836.5,5.00,0.00,26.0,24.6,00.0,34.8,27.9,24.3,-001.9,0009.55,0013.63,0009.13
2022-10-08 10:16:00,,0836.5,5.00,0.00,26.0,24.6,00.0,34.8,28.0,24.3,-002.1,0009.62,0013.80,0009.16
2022-10-08 10:17:00,,0836.5,4.99,0.00,26.0,24.6,00.0,34.8,28.0,24.3,-002.1,0009.65,0013.88,0009.17
2022-10-08 10:18:00,,0836.5,5.01,0.00,26.0,24.6,00.0,34.8,27.9,24.2,-001.8,0009.68,0014.04,0009.17
2022-10-08 10:19:00,,0836.5,5.00,0.00,26.0,24.6,00.0,34.8,28.0,24.2,-001.7,0009.71,0014.14,0009.19
2022-10-08 10:20:00,,0836.5,5.00,0.00,26.0,24.6,00.0,34.8,28.0,24.3,-001.6,0009.70,0014.55,0009.21
2022-10-08 10:21:00,,0836.5,5.00,0.00,26.0,24.6,00.0,34.8,28.0,24.5,-001.3,0009.73,0014.06,0009.24
2022-10-08 10:22:00,,0836.5,5.01,0.00,26.0,24.6,00.0,34.8,27.9,24.6,-001.2,0009.74,0013.96,0009.24
2022-10-08 10:23:00,,0836.5,5.00,0.00,26.0,24.6,00.0,34.8,28.0,24.6,-000.9,0009.67,0014.12,0009.22
2022-10-08 10:24:00,,0836.6,4.99,0.00,26.0,24.6,00.0,34.8,28.0,24.7,-001.0,0009.63,0014.51,0009.18
2022-10-08 10:25:00,,0836.6,5.01,0.00,26.0,24.6,00.0,34.8,28.0,24.6,-000.9,0009.62,0014.50,0009.18
2022-10-08 10:26:00,,0836.6,5.00,0.00,26.0,24.6,00.0,34.8,28.0,24.4,-001.0,0009.61,0014.46,0009.19
2022-10-08 10:27:00,,0836.6,4.99,0.00,26.0,24.6,00.0,34.8,28.0,24.4,-000.9,0009.59,0014.38,0009.18
2022-10-08 10:28:00,,0836.6,4.99,0.00,26.0,24.6,00.0,34.8,28.0,24.3,-000.9,0009.61,0014.40,0009.20
2022-10-08 10:29:00,,0836.6,5.02,0.00,26.0,24.6,00.0,34.8,28.0,24.3,-001.2,0009.63,0014.35,0009.23
2022-10-08 10:30:00,,0836.6,5.00,0.00,26.0,24.6,00.0,34.8,28.0,24.4,-001.2,0009.60,0014.21,0009.24
2022-10-08 10:31:00,,0836.7,4.99,0.00,26.1,24.6,00.0,34.8,28.0,24.4,-001.3,0009.65,0013.83,0009.26
2022-10-08 10:32:00,,0836.6,5.01,0.00,26.1,24.6,00.0,34.8,28.0,24.6,-001.3,0009.68,0013.78,0009.27
2022-10-08 10:33:00,,0836.6,4.99,0.00,26.1,24.6,00.0,34.8,28.0,24.8,-001.4,0009.68,0013.80,0009.28
2022-10-08 10:34:00,,0836.6,4.99,0.00,26.1,24.6,00.0,34.8,28.0,24.6,-001.6,0009.76,0014.09,0009.32
2022-10-08 10:35:00,,0836.6,5.01,0.00,26.1,24.6,00.0,34.8,28.0,24.4,-001.5,0009.85,0013.58,0009.41
2022-10-08 10:36:00,,0836.6,4.99,0.00,26.1,24.6,00.0,34.8,28.0,24.2,-001.3,0009.94,0013.66,0009.49
2022-10-08 10:37:00,,0836.6,5.01,0.00,26.1,24.6,00.0,34.8,28.0,24.0,-001.3,0010.00,0013.77,0009.54
2022-10-08 10:38:00,,0836.6,5.00,0.00,26.1,24.6,00.0,34.8,28.0,23.9,-001.4,0010.03,0014.08,0009.58
2022-10-08 10:39:00,,0836.6,5.00,0.00,26.1,24.6,00.0,34.8,28.0,23.9,-001.5,0010.04,0014.11,0009.61
2022-10-08 10:40:00,,0836.6,5.01,0.00,26.1,24.6,00.0,34.8,28.0,23.7,-001.4,0010.02,0013.99,0009.62
2022-10-08 10:41:00,,0836.6,5.00,0.00,26.1,24.6,00.0,34.8,28.0,23.7,-001.4,0010.04,0014.36,0009.64
2022-10-08 10:42:00,,0836.6,5.00,0.00,26.1,24.6,00.0,34.8,28.0,23.5,-001.3,0010.06,0014.88,0009.66
2022-10-08 10:43:00,,0836.6,5.01,0.00,26.1,24.6,00.0,34.8,28.0,23.4,-001.5,0010.08,0015.28,0009.69
2022-10-08 10:44:00,,0836.6,4.99,0.00,26.1,24.6,00.0,34.8,28.0,23.3,-001.8,0010.12,0015.73,0009.74
2022-10-08 10:45:00,,0836.6,4.99,0.00,26.1,24.6,00.0,34.8,28.0,23.3,-001.9,0010.10,0015.42,0009.75
2022-10-08 10:46:00,,0836.6,4.99,0.00,26.1,24.6,00.0,34.8,28.0,23.2,-001.9,0010.07,0015.33,0009.73
2022-10-08 10:47:00,,0836.6,5.01,0.00,26.1,24.6,00.0,34.8,28.0,23.0,-002.2,0010.11,0015.47,0009.76
2022-10-08 10:48:00,,0836.6,4.99,0.00,26.1,24.6,00.0,34.8,28.0,22.9,-002.4,0010.18,0015.82,0009.80
2022-10-08 10:49:00,,0836.6,5.00,0.00,26.1,24.6,00.0,34.8,27.9,22.9,-002.2,0010.23,0015.68,0009.83
2022-10-08 10:50:00,,0836.6,5.02,0.00,26.1,24.6,00.0,34.8,27.9,22.9,-002.1,0010.29,0015.70,0009.86
2022-10-08 10:51:00,,0836.6,4.99,0.00,26.1,24.6,00.0,34.8,28.0,22.9,-002.1,0010.36,0015.85,0009.89
2022-10-08 10:52:00,,0836.6,4.99,0.00,26.1,24.6,00.0,34.8,27.9,22.9,-002.0,0010.44,0015.72,0009.92
2022-10-08 10:53:00,,0836.6,5.00,0.00,26.1,24.6,00.0,34.8,28.0,23.1,-002.2,0010.45,0015.75,0009.92
2022-10-08 10:54:00,,0836.6,5.00,0.00,26.1,24.6,00.0,34.8,28.0,23.2,-002.2,0010.42,0015.48,0009.89
2022-10-08 10:55:00,,0836.6,5.00,0.00,26.1,24.6,00.0,34.8,28.0,23.3,-002.0,0010.40,0015.11,0009.86
2022-10-08 10:56:00,,0836.6,5.00,0.00,26.1,24.6,00.0,34.8,28.0,23.4,-002.0,0010.41,0015.43,0009.85
2022-10-08 10:57:00,,0836.6,5.00,0.00,26.1,24.6,00.0,34.8,28.0,23.4,-002.1,0010.41,0015.70,0009.83
2022-10-08 10:58:00,,0836.6,5.01,0.00,26.1,24.6,00.0,34.8,27.9,23.3,-001.9,0010.35,0015.90,0009.78
2022-10-08 10:59:00,,0836.6,5.01,0.00,26.1,24.6,00.0,34.8,28.0,23.2,-001.9,0010.26,0016.12,0009.74
